EW5239 Weather Reports


Display with metric or nautical units.
time (UTC)temp
F
wind
direction
speed
MPH
gust
MPH
rain 1hr
in
rain 24hr
in
rain mn
in
humidity
%
barometer
mb
20260503205125 61 198 1.0 2.0 0.00 0.00 0.00 46 1014.3
20260503205006 60 225 1.0 2.0 0.00 0.00 0.00 48 1012.5
20260503204624 61 189 1.0 2.0 0.00 0.00 0.00 45 1014.1
20260503204507 61 221 1.0 2.0 0.00 0.00 0.00 47 1012.5
20260503204006 61 217 2.0 2.0 0.00 0.00 0.00 47 1012.3
20260503203506 61 222 2.0 2.0 0.00 0.00 0.00 46 1012.4
20260503203124 62 213 1.0 2.0 0.00 0.00 0.00 44 1014.2
20260503203006 62 219 2.0 2.0 0.00 0.00 0.00 46 1012.4
20260503202506 62 219 2.0 2.0 0.00 0.00 0.00 45 1012.4
20260503202124 63 221 1.0 2.0 0.00 0.00 0.00 43 1014.1
20260503202007 62 225 2.0 2.0 0.00 0.00 0.00 45 1012.4
20260503201506 62 225 2.0 2.0 0.00 0.00 0.00 45 1012.6
20260503201007 63 225 2.0 2.0 0.00 0.00 0.00 44 1012.4
20260503200506 63 225 2.0 2.0 0.00 0.00 0.00 43 1012.5
20260503200131 64 199 1.0 2.0 0.00 0.00 0.00 42 1014.3
20260503200007 63 225 2.0 2.0 0.00 0.00 0.00 43 1012.6
20260503195625 64 213 1.0 2.0 0.00 0.00 0.00 41 1014.1
20260503195506 64 225 2.0 2.0 0.00 0.00 0.00 42 1012.5
20260503195125 64 236 1.0 2.0 0.00 0.00 0.00 41 1014.1
20260503194625 65 223 2.0 3.0 0.00 0.00 0.00 41 1014.0
20260503194125 65 204 2.0 3.0 0.00 0.00 0.00 40 1014.2
20260503194006 65 220 2.0 3.0 0.00 0.00 0.00 42 1012.6
20260503193625 65 208 2.0 2.0 0.00 0.00 0.00 40 1014.1
20260503193506 65 225 2.0 3.0 0.00 0.00 0.00 42 1012.7
20260503193125 65 214 2.0 2.0 0.00 0.00 0.00 40 1014.2
20260503193006 65 221 2.0 3.0 0.00 0.00 0.00 41 1012.5
20260503192625 65 215 2.0 2.0 0.00 0.00 0.00 39 1014.4
20260503192507 65 220 2.0 3.0 0.00 0.00 0.00 41 1012.6
20260503192125 66 216 2.0 2.0 0.00 0.00 0.00 39 1014.1
20260503192006 66 222 2.0 3.0 0.00 0.00 0.00 41 1012.6
20260503191625 66 216 2.0 2.0 0.00 0.00 0.00 39 1014.3
20260503191125 66 221 2.0 2.0 0.00 0.00 0.00 37 1014.2
20260503190506 67 225 2.0 3.0 0.00 0.00 0.00 38 1012.4
20260503190130 67 221 2.0 2.0 0.00 0.00 0.00 37 1014.1
20260503190007 67 225 2.0 3.0 0.00 0.00 0.00 38 1012.5
20260503185624 67 226 2.0 2.0 0.00 0.00 0.00 36 1014.2
20260503185506 67 225 2.0 3.0 0.00 0.00 0.00 38 1012.5
20260503185124 67 226 2.0 2.0 0.00 0.00 0.00 36 1014.2
20260503185006 67 225 2.0 3.0 0.00 0.00 0.00 38 1012.4
20260503184506 68 225 2.0 3.0 0.00 0.00 0.00 36 1012.3
20260503184124 69 225 2.0 2.0 0.00 0.00 0.00 34 1014.0
20260503184006 69 225 2.0 3.0 0.00 0.00 0.00 35 1012.3
20260503183625 69 224 2.0 2.0 0.00 0.00 0.00 34 1014.1
20260503183506 69 225 2.0 3.0 0.00 0.00 0.00 35 1012.3
20260503183125 70 215 2.0 2.0 0.00 0.00 0.00 34 1013.8
20260503183006 70 222 2.0 3.0 0.00 0.00 0.00 33 1012.3
20260503182625 70 209 2.0 3.0 0.00 0.00 0.00 32 1013.8
20260503182506 70 222 3.0 4.0 0.00 0.00 0.00 33 1012.2
20260503182006 71 207 4.0 6.0 0.00 0.00 0.00 33 1012.1
20260503181624 71 205 4.0 6.0 0.00 0.00 0.00 32 1013.7
20260503181507 71 198 4.0 6.0 0.00 0.00 0.00 33 1012.0
20260503181125 71 214 4.0 6.0 0.00 0.00 0.00 32 1013.7
20260503181006 71 214 3.0 4.0 0.00 0.00 0.00 32 1012.0
20260503180625 72 225 4.0 6.0 0.00 0.00 0.00 30 1013.7
20260503180506 72 211 3.0 6.0 0.00 0.00 0.00 31 1012.1
20260503180131 72 215 4.0 6.0 0.00 0.00 0.00 29 1013.6
20260503180006 72 206 4.0 6.0 0.00 0.00 0.00 31 1012.1
20260503175625 72 210 4.0 6.0 0.00 0.00 0.00 29 1013.6
20260503175506 73 213 4.0 6.0 0.00 0.00 0.00 31 1012.0
20260503175125 73 203 4.0 5.0 0.00 0.00 0.00 28 1013.6
20260503174506 74 221 4.0 5.0 0.00 0.00 0.00 29 1012.0
20260503174125 74 224 4.0 6.0 0.00 0.00 0.00 28 1013.6
20260503174006 74 215 4.0 6.0 0.00 0.00 0.00 29 1012.0
20260503173624 74 231 4.0 7.0 0.00 0.00 0.00 27 1013.5
20260503173506 75 211 5.0 7.0 0.00 0.00 0.00 28 1011.9
20260503173124 74 227 6.0 8.0 0.00 0.00 0.00 27 1013.5
20260503173007 75 224 6.0 8.0 0.00 0.00 0.00 27 1012.0
20260503172506 76 228 6.0 8.0 0.00 0.00 0.00 27 1011.9
20260503172125 75 206 7.0 10.0 0.00 0.00 0.00 27 1013.9
20260503171624 75 221 7.0 10.0 0.00 0.00 0.00 26 1013.3
20260503171506 76 211 7.0 10.0 0.00 0.00 0.00 26 1011.9
20260503171124 76 212 7.0 11.0 0.00 0.00 0.00 26 1013.5
20260503171006 77 219 7.0 11.0 0.00 0.00 0.00 26 1011.9
20260503170624 76 202 7.0 11.0 0.00 0.00 0.00 25 1013.7
20260503170507 77 220 8.0 11.0 0.00 0.00 0.00 25 1012.0
20260503150624 78 212 8.0 13.0 0.00 0.00 0.00 24 1014.0
20260503150130 79 211 8.0 11.0 0.00 0.00 0.00 23 1014.0
20260503140130 80 226 9.0 11.0 0.00 0.00 0.00 18 1014.7
20260503131124 79 234 10.0 12.0 0.00 0.00 0.00 19 1015.3
20260503131006 78 237 9.0 12.0 0.00 0.00 0.00 23 1013.8
20260503130625 78 192 9.0 12.0 0.00 0.00 0.00 22 1015.2
20260503130506 78 194 9.0 11.0 0.00 0.00 0.00 23 1013.6
20260503130133 78 190 9.0 14.0 0.00 0.00 0.00 22 1015.1
20260503120130 78 187 10.0 15.0 0.00 0.00 0.00 23 1015.7
20260503110625 77 195 10.0 13.0 0.00 0.00 0.00 24 1016.5
20260503110506 76 208 9.0 12.0 0.00 0.00 0.00 27 1014.8
20260503110131 77 179 9.0 11.0 0.00 0.00 0.00 23 1016.3
20260503100131 74 201 9.0 13.0 0.00 0.00 0.00 28 1017.3
20260503090506 71 223 9.0 15.0 0.00 0.00 0.00 34 1016.1
20260503090130 71 215 10.0 14.0 0.00 0.00 0.00 32 1018.0
20260503081625 69 222 9.0 13.0 0.00 0.00 0.00 36 1018.0
20260503081124 68 227 9.0 12.0 0.00 0.00 0.00 37 1018.1
20260503080625 68 204 9.0 12.0 0.00 0.00 0.00 37 1018.1
20260503080506 68 231 10.0 11.0 0.00 0.00 0.00 39 1016.2
20260503080130 68 205 9.0 10.0 0.00 0.00 0.00 38 1017.9
20260503072624 66 226 9.0 12.0 0.00 0.00 0.00 40 1017.8
20260503072506 67 203 10.0 12.0 0.00 0.00 0.00 42 1016.2
20260503072006 66 200 9.0 11.0 0.00 0.00 0.00 42 1016.2
20260503071625 66 199 9.0 14.0 0.00 0.00 0.00 41 1017.9
20260503071506 66 189 9.0 13.0 0.00 0.00 0.00 43 1016.3
20260503071124 65 205 10.0 14.0 0.00 0.00 0.00 40 1018.0
20260503071006 66 187 9.0 13.0 0.00 0.00 0.00 43 1016.2
20260503070625 65 242 10.0 12.0 0.00 0.00 0.00 42 1017.9
20260503070506 65 213 10.0 14.0 0.00 0.00 0.00 45 1016.2
20260503070130 64 230 10.0 15.0 0.00 0.00 0.00 42 1017.8
20260503060131 61 193 9.0 11.0 0.00 0.00 0.00 45 1017.9
20260503055125 60 193 8.0 11.0 0.00 0.00 0.00 48 1017.6
20260503055006 61 176 8.0 11.0 0.00 0.00 0.00 50 1016.2
20260503054506 60 176 7.0 11.0 0.00 0.00 0.00 52 1016.0
20260503054125 60 195 7.0 11.0 0.00 0.00 0.00 50 1017.6
20260503054006 60 195 7.0 9.0 0.00 0.00 0.00 53 1016.0
20260503053624 60 191 7.0 8.0 0.00 0.00 0.00 50 1017.9
20260503053506 60 201 8.0 9.0 0.00 0.00 0.00 53 1016.2
20260503053005 59 199 8.0 11.0 0.00 0.00 0.00 54 1016.2
20260503052625 59 190 8.0 13.0 0.00 0.00 0.00 52 1017.9
20260503052506 58 194 8.0 11.0 0.00 0.00 0.00 55 1016.1
20260503052125 58 187 7.0 13.0 0.00 0.00 0.00 54 1017.8
20260503052006 57 198 7.0 11.0 0.00 0.00 0.00 58 1016.2
20260503051624 57 198 6.0 8.0 0.00 0.00 0.00 55 1018.0
20260503051506 56 204 6.0 8.0 0.00 0.00 0.00 61 1016.2
20260503051125 57 192 5.0 7.0 0.00 0.00 0.00 57 1018.0
20260503051006 55 194 5.0 7.0 0.00 0.00 0.00 65 1016.3
20260503050625 56 172 5.0 7.0 0.00 0.00 0.00 59 1018.0
20260503050506 54 194 5.0 8.0 0.00 0.00 0.00 68 1016.3
20260503050130 56 168 3.0 7.0 0.00 0.00 0.00 61 1018.2
20260503050006 53 196 3.0 8.0 0.00 0.00 0.00 72 1016.4
20260503045625 56 149 2.0 3.0 0.00 0.00 0.00 68 1018.2
20260503045506 52 124 2.0 3.0 0.00 0.00 0.00 74 1016.4
20260503045125 56 127 2.0 2.0 0.00 0.00 0.00 71 1018.3
20260503045005 52 120 2.0 2.0 0.00 0.00 0.00 74 1016.3
20260503044625 54 130 1.0 2.0 0.00 0.00 0.00 75 1018.3
20260503044506 51 134 1.0 2.0 0.00 0.00 0.00 75 1016.4
20260503044124 52 139 1.0 2.0 0.00 0.00 0.00 82 1018.2
20260503044006 51 130 1.0 2.0 0.00 0.00 0.00 76 1016.3
20260503043625 50 139 1.0 2.0 0.00 0.00 0.00 83 1018.1
20260503043505 50 135 2.0 2.0 0.00 0.00 0.00 77 1016.2
20260503043125 48 136 2.0 3.0 0.00 0.00 0.00 84 1018.3
20260503043006 50 135 2.0 2.0 0.00 0.00 0.00 78 1016.5
20260503042625 47 133 2.0 3.0 0.00 0.00 0.00 85 1018.2
20260503042506 49 132 2.0 2.0 0.00 0.00 0.00 79 1016.4
20260503042006 48 132 2.0 2.0 0.00 0.00 0.00 80 1016.4
20260503041625 46 129 1.0 2.0 0.00 0.00 0.00 84 1018.4
20260503041506 48 132 2.0 2.0 0.00 0.00 0.00 82 1016.5
20260503041125 46 130 1.0 2.0 0.00 0.00 0.00 85 1018.5
20260503040624 45 135 2.0 2.0 0.00 0.00 0.00 85 1018.3
20260503040506 46 135 2.0 2.0 0.00 0.00 0.00 82 1016.6
20260503040131 45 135 2.0 2.0 0.00 0.00 0.00 85 1018.4
20260503040006 46 128 1.0 2.0 0.00 0.00 0.00 82 1016.4
20260503035625 44 135 1.0 2.0 0.00 0.00 0.00 86 1018.5
20260503035505 46 117 0.0 2.0 0.00 0.00 0.00 82 1016.4
20260503035125 44 135 0.0 1.0 0.00 0.00 0.00 85 1018.2
20260503035006 46 181 0.0 1.0 0.00 0.00 0.00 82 1016.4
20260503034625 44 175 0.0 1.0 0.00 0.00 0.00 86 1018.4
20260503034506 46 156 1.0 2.0 0.00 0.00 0.00 82 1016.5
20260503034006 46 142 1.0 2.0 0.00 0.00 0.00 83 1016.3
20260503033625 44 146 1.0 2.0 0.00 0.00 0.00 87 1018.6
20260503033506 45 136 2.0 2.0 0.00 0.00 0.00 83 1016.4
20260503033124 43 144 2.0 2.0 0.00 0.00 0.00 87 1018.4
20260503033006 45 150 2.0 2.0 0.00 0.00 0.00 83 1016.2
20260503032625 43 156 2.0 2.0 0.00 0.00 0.00 86 1018.5
20260503032506 44 174 2.0 2.0 0.00 0.00 0.00 83 1016.4
20260503032006 43 181 2.0 2.0 0.00 0.00 0.00 83 1016.4
20260503031625 42 181 0.0 2.0 0.00 0.00 0.00 85 1018.4
20260503031506 43 181 1.0 2.0 0.00 0.00 0.00 82 1016.5
20260503031125 42 0 0.0 0.0 0.00 0.00 0.00 85 1018.4
20260503031005 43 181 1.0 2.0 0.00 0.00 0.00 82 1016.3
20260503030625 42 0 0.0 0.0 0.00 0.00 0.00 85 1018.3
20260503030506 43 181 1.0 2.0 0.00 0.00 0.00 82 1016.4
20260503030006 44 181 1.0 2.0 0.00 0.00 0.00 82 1016.5
20260503025625 42 151 0.0 2.0 0.00 0.00 0.00 84 1018.6
20260503025506 44 168 1.0 2.0 0.00 0.00 0.00 82 1016.3
20260503025125 43 144 0.0 2.0 0.00 0.00 0.00 84 1018.3
20260503025006 44 169 1.0 2.0 0.00 0.00 0.00 82 1016.3
20260503024625 43 160 0.0 2.0 0.00 0.00 0.00 82 1018.6
20260503024506 44 178 1.0 2.0 0.00 0.00 0.00 81 1016.4
20260503024125 43 181 0.0 1.0 0.00 0.00 0.00 82 1018.3
20260503024006 44 181 1.0 2.0 0.00 0.00 0.00 81 1016.3
20260503023625 43 0 0.0 0.0 0.00 0.00 0.00 82 1018.3
20260503023506 45 181 1.0 2.0 0.00 0.00 0.00 79 1016.4
20260503023124 44 0 0.0 0.0 0.00 0.00 0.00 82 1018.2
20260503023006 45 181 1.0 2.0 0.00 0.00 0.00 79 1016.4
20260503022125 45 181 0.0 1.0 0.00 0.00 0.00 81 1018.3
20260503021625 46 174 1.0 2.0 0.00 0.00 0.00 81 1018.4
20260503021506 47 174 1.0 2.0 0.00 0.00 0.00 79 1016.4
20260503021125 46 175 1.0 2.0 0.00 0.00 0.00 81 1018.3
20260503021006 47 175 2.0 2.0 0.00 0.00 0.00 79 1016.3
20260503020627 46 178 1.0 2.0 0.00 0.00 0.00 82 1018.5
20260503020131 46 173 1.0 2.0 0.00 0.00 0.00 82 1018.4
20260503020006 46 161 2.0 2.0 0.00 0.00 0.00 79 1016.5
20260503015625 45 164 1.0 2.0 0.00 0.00 0.00 82 1018.4
20260503015506 46 160 2.0 2.0 0.00 0.00 0.00 80 1016.5
20260503015125 45 151 1.0 2.0 0.00 0.00 0.00 82 1018.3
20260503015006 46 152 2.0 2.0 0.00 0.00 0.00 79 1016.5
20260503014625 44 150 1.0 2.0 0.00 0.00 0.00 82 1018.7
20260503014125 44 181 0.0 1.0 0.00 0.00 0.00 82 1018.7
20260503013506 46 181 1.0 2.0 0.00 0.00 0.00 79 1016.6
20260503013125 45 162 0.0 1.0 0.00 0.00 0.00 81 1018.6
20260503012624 45 145 0.0 1.0 0.00 0.00 0.00 81 1018.6
20260503012506 46 136 0.0 2.0 0.00 0.00 0.00 78 1016.5
20260503012125 45 135 0.0 1.0 0.00 0.00 0.00 79 1018.5
20260503012005 46 0 0.0 0.0 0.00 0.00 0.00 77 1016.6
20260503011625 45 0 0.0 0.0 0.00 0.00 0.00 79 1018.6
20260503011506 46 181 0.0 1.0 0.00 0.00 0.00 77 1016.6
20260503011125 46 181 0.0 1.0 0.00 0.00 0.00 78 1018.5
20260503010625 46 181 0.0 1.0 0.00 0.00 0.00 78 1018.5
20260503010506 47 181 0.0 2.0 0.00 0.00 0.00 76 1016.5
20260503010006 47 0 0.0 0.0 0.00 0.00 0.00 76 1016.6
20260503005625 46 0 0.0 0.0 0.00 0.00 0.00 76 1018.5
20260503005125 47 0 0.0 0.0 0.00 0.00 0.00 76 1018.7
20260503005005 48 0 0.0 0.0 0.00 0.00 0.00 75 1016.8
20260503004506 49 135 0.0 1.0 0.00 0.00 0.00 74 1016.6
20260503004125 48 135 0.0 2.0 0.00 0.00 0.00 76 1018.6
20260503003124 48 91 2.0 2.0 0.00 0.00 0.00 76 1018.6
20260503003006 49 90 3.0 3.0 0.00 0.00 0.00 74 1016.7
20260503002506 49 90 3.0 3.0 0.00 0.00 0.00 74 1016.6
20260503002005 49 90 2.0 3.0 0.00 0.00 0.00 73 1016.6
20260503001625 47 90 1.0 2.0 0.00 0.00 0.00 75 1018.4
20260503001506 49 90 1.0 2.0 0.00 0.00 0.00 72 1016.6
20260503001125 47 0 0.0 0.0 0.00 0.00 0.00 75 1018.6
20260503001007 49 0 0.0 0.0 0.00 0.00 0.00 72 1016.8
20260503000625 48 0 0.0 0.0 0.00 0.00 0.00 72 1018.7
20260503000506 49 270 0.0 1.0 0.00 0.00 0.00 70 1016.7
20260503000131 48 0 0.0 0.0 0.00 0.00 0.00 72 1018.5
20260503000006 49 270 0.0 2.0 0.00 0.00 0.00 70 1016.9
20260502235625 48 270 0.0 1.0 0.00 0.00 0.00 70 1018.7
20260502235125 49 270 0.0 1.0 0.00 0.00 0.00 69 1018.6
20260502235006 50 270 0.0 2.0 0.00 0.00 0.00 68 1016.9
20260502234125 50 181 0.0 1.0 0.00 0.00 0.00 66 1018.5
20260502234006 51 181 1.0 2.0 0.00 0.00 0.00 66 1016.8
20260502233625 51 181 1.0 2.0 0.00 0.00 0.00 66 1018.6
20260502233506 52 181 2.0 2.0 0.00 0.00 0.00 66 1016.9
20260502233125 51 181 1.0 2.0 0.00 0.00 0.00 65 1018.5
20260502233006 52 190 1.0 2.0 0.00 0.00 0.00 64 1016.8
20260502232625 52 183 1.0 2.0 0.00 0.00 0.00 64 1018.6
20260502232505 53 189 1.0 2.0 0.00 0.00 0.00 64 1016.8
20260502232125 53 167 2.0 2.0 0.00 0.00 0.00 63 1018.6
20260502231506 53 159 2.0 3.0 0.00 0.00 0.00 64 1016.9
20260502231124 53 157 2.0 2.0 0.00 0.00 0.00 63 1018.7
20260502231006 54 157 2.0 2.0 0.00 0.00 0.00 62 1016.9
20260502230506 54 173 2.0 2.0 0.00 0.00 0.00 62 1016.9
20260502230006 54 181 1.0 2.0 0.00 0.00 0.00 62 1017.2
20260502225625 54 181 1.0 2.0 0.00 0.00 0.00 60 1019.0
20260502225506 54 225 0.0 2.0 0.00 0.00 0.00 61 1017.0
20260502225125 55 181 0.0 2.0 0.00 0.00 0.00 59 1018.8
20260502225006 55 186 1.0 2.0 0.00 0.00 0.00 61 1017.0
20260502224625 55 177 1.0 2.0 0.00 0.00 0.00 59 1018.8
20260502224125 55 177 1.0 2.0 0.00 0.00 0.00 58 1018.7
20260502224006 55 188 2.0 2.0 0.00 0.00 0.00 60 1017.0
20260502223625 56 184 1.0 2.0 0.00 0.00 0.00 58 1018.7
20260502223506 56 185 2.0 2.0 0.00 0.00 0.00 60 1017.1
20260502223125 56 183 2.0 3.0 0.00 0.00 0.00 58 1019.0
20260502222624 56 181 3.0 4.0 0.00 0.00 0.00 59 1018.8
20260502222506 56 201 3.0 4.0 0.00 0.00 0.00 61 1017.1
20260502222125 55 183 3.0 4.0 0.00 0.00 0.00 61 1019.0
20260502222006 55 212 4.0 4.0 0.00 0.00 0.00 63 1017.3
20260502221506 54 196 3.0 4.0 0.00 0.00 0.00 64 1017.3
20260502221124 53 185 1.0 4.0 0.00 0.00 0.00 65 1019.1
20260502221006 53 181 2.0 4.0 0.00 0.00 0.00 65 1017.3
20260502220625 53 181 0.0 1.0 0.00 0.00 0.00 65 1019.0
20260502220506 53 181 1.0 2.0 0.00 0.00 0.00 66 1017.3
20260502220132 53 181 0.0 1.0 0.00 0.00 0.00 65 1019.0
20260502220007 53 181 1.0 2.0 0.00 0.00 0.00 66 1017.3
20260502215624 53 181 0.0 1.0 0.00 0.00 0.00 65 1019.0
20260502215506 53 181 1.0 2.0 0.00 0.00 0.00 65 1017.3
20260502215125 53 174 1.0 2.0 0.00 0.00 0.00 65 1019.1
20260502215005 53 171 1.0 2.0 0.00 0.00 0.00 65 1017.3
20260502214625 53 172 1.0 2.0 0.00 0.00 0.00 65 1019.1
20260502214506 53 169 2.0 2.0 0.00 0.00 0.00 65 1017.4
20260502214125 53 173 1.0 2.0 0.00 0.00 0.00 65 1019.2
20260502213625 53 171 1.0 2.0 0.00 0.00 0.00 65 1019.1
20260502213505 53 169 2.0 2.0 0.00 0.00 0.00 65 1017.4
20260502213125 52 167 1.0 2.0 0.00 0.00 0.00 65 1019.1
20260502213006 53 175 1.0 2.0 0.00 0.00 0.00 64 1017.4
20260502212125 53 221 1.0 2.0 0.00 0.00 0.00 64 1019.2
20260502212006 53 230 2.0 2.0 0.00 0.00 0.00 63 1017.6
20260502211506 54 229 2.0 3.0 0.00 0.00 0.00 62 1017.6
20260502211125 53 187 2.0 4.0 0.00 0.00 0.00 64 1019.2
20260502211005 54 192 2.0 4.0 0.00 0.00 0.00 62 1017.5
20260502210625 53 185 3.0 4.0 0.00 0.00 0.00 64 1019.3
20260502210506 54 178 3.0 4.0 0.00 0.00 0.00 62 1017.5
20260502210131 53 183 3.0 4.0 0.00 0.00 0.00 64 1019.3
20260502210006 54 181 3.0 3.0 0.00 0.00 0.00 62 1017.4
20260502205625 53 178 2.0 4.0 0.00 0.00 0.00 64 1019.2
20260502205506 54 183 2.0 3.0 0.00 0.00 0.00 61 1017.6